Tuscaloosa, AL

11:18 PM CDT on May 28, 2017 (GMT -0500)
Tuscaloosa Municipal

Weather History for KTCL - February, 2013

Change the Weather History Date:

Sunday, February 24, 2013

  Actual Average Record
Temperature  
Mean Temperature 51 °F 51 °F  
Max Temperature 68 °F 63 °F 84 °F (1996)
Min Temperature 34 °F 40 °F 20 °F (1989)
Degree Days  
Heating Degree Days 14 14  
Month to date heating degree days 415 404  
Since 1 July heating degree days 1794 2036  
Moisture  
Dew Point 36 °F    
Average Humidity 62    
Maximum Humidity 92    
Minimum Humidity 32    
Precipitation  
Precipitation 0.00 in 0.19 in 1.38 in (1953)
Month to date precipitation 5.31 4.61  
Year to date precipitation 10.55 9.96  
Sea Level Pressure  
Sea Level Pressure 30.00 in    
Wind  
Wind Speed 5 mph (NE)    
Max Wind Speed 12 mph    
Max Gust Speed 15 mph    
Visibility 7 miles    
Events      
T = Trace of Precipitation, MM = Missing Value Source: NWS Daily Summary

Daily Weather History Graph

Daily Weather History Graph

Search for Another Location

Airport or City:

Trip Planner

Search our weather history database for the weather conditions in past years. The results will help you decide how hot, cold, wet, or windy it might be!

Date:

Astronomy

Feb. 24, 2013 Rise Set
Actual Time 6:24 AM CST 5:43 PM CST
Civil Twilight 5:59 AM CST 6:08 PM CST
Nautical Twilight 5:30 AM CST 6:37 PM CST
Astronomical Twilight 5:01 AM CST 7:06 PM CST
Moon 4:54 PM CST (2/24) 5:19 AM CST (2/24)
Length of Visible Light 12h 09m
Length of Day
11h 19m
Waxing Gibbous, 99% of the Moon is Illuminated
Feb 24
Waxing Gibbous
Feb 25
Full
Mar 4
Last Quarter
Mar 11
New
Mar 19
First Quarter

Hourly Weather History & Observations

Time (CST) Temp. Windchill Dew Point Humidity Pressure Visibility Wind Dir Wind Speed Gust Speed Precip Events Conditions
12:07 AM 39.2 °F - 37.4 °F 93% 29.98 in 1.2 mi Calm Calm - N/A   Partly Cloudy
12:19 AM 39.2 °F - 37.4 °F 93% 29.99 in 3.0 mi Calm Calm - N/A   Partly Cloudy
12:53 AM 39.0 °F - 37.0 °F 93% 29.99 in 3.0 mi Calm Calm - N/A   Clear
12:55 AM 39.2 °F - 37.4 °F 93% 30.00 in 1.8 mi Calm Calm - N/A   Clear
1:04 AM 39.2 °F - 37.4 °F 93% 30.00 in 0.8 mi Calm Calm - N/A   Clear
1:10 AM 39.2 °F - 37.4 °F 93% 29.99 in 2.0 mi Calm Calm - N/A   Clear
1:18 AM 39.2 °F - 37.4 °F 93% 29.99 in 4.0 mi Calm Calm - N/A   Clear
1:38 AM 37.4 °F - 35.6 °F 93% 30.00 in 1.8 mi Calm Calm - N/A   Clear
1:47 AM 37.4 °F 34.9 °F 35.6 °F 93% 30.00 in 3.0 mi NNE 3.5 mph - N/A   Clear
1:48 AM 37.9 °F 35.5 °F 36.0 °F 93% 30.00 in 3.0 mi NNE 3.5 mph - N/A   Clear
2:53 AM 37.0 °F - 35.1 °F 93% 30.00 in 9.0 mi Calm Calm - N/A   Clear
3:53 AM 36.0 °F - 34.0 °F 93% 30.01 in 8.0 mi Calm Calm - N/A   Clear
4:53 AM 36.0 °F - 33.1 °F 89% 30.02 in 8.0 mi Calm Calm - N/A   Clear
5:53 AM 35.1 °F - 32.0 °F 89% 30.04 in 9.0 mi Calm Calm - N/A   Clear
6:53 AM 35.1 °F - 33.1 °F 92% 30.04 in 7.0 mi Calm Calm - N/A   Clear
7:53 AM 39.9 °F 37.8 °F 36.0 °F 86% 30.06 in 10.0 mi North 3.5 mph - N/A   Clear
8:53 AM 46.9 °F - 37.9 °F 71% 30.08 in 10.0 mi Variable 4.6 mph - N/A   Clear
9:53 AM 53.1 °F - 39.0 °F 59% 30.07 in 10.0 mi NE 5.8 mph - N/A   Clear
10:53 AM 57.9 °F - 37.0 °F 46% 30.06 in 10.0 mi NNE 6.9 mph - N/A   Clear
11:53 AM 61.0 °F - 35.1 °F 38% 30.04 in 10.0 mi NE 8.1 mph - N/A   Clear
12:53 PM 63.0 °F - 35.1 °F 35% 30.03 in 10.0 mi Variable 4.6 mph - N/A   Clear
1:53 PM 66.0 °F - 35.1 °F 32% 30.01 in 10.0 mi ENE 8.1 mph - N/A   Clear
2:53 PM 64.9 °F - 35.1 °F 33% 29.98 in 10.0 mi Calm Calm - N/A   Clear
3:53 PM 66.9 °F - 35.1 °F 31% 29.97 in 10.0 mi NE 8.1 mph - N/A   Clear
4:53 PM 66.0 °F - 35.1 °F 32% 29.96 in 10.0 mi NE 8.1 mph - N/A   Clear
5:53 PM 57.0 °F - 39.0 °F 51% 29.96 in 10.0 mi NNE 8.1 mph - N/A   Clear
6:53 PM 55.0 °F - 37.9 °F 53% 29.96 in 10.0 mi NE 8.1 mph - N/A   Clear
7:53 PM 55.0 °F - 37.0 °F 51% 29.96 in 10.0 mi NE 8.1 mph - N/A   Clear
8:53 PM 54.0 °F - 37.0 °F 53% 29.95 in 10.0 mi NE 6.9 mph - N/A   Clear
9:53 PM 53.1 °F - 37.0 °F 55% 29.94 in 10.0 mi NE 4.6 mph - N/A   Clear
10:53 PM 52.0 °F - 37.0 °F 57% 29.91 in 10.0 mi ENE 5.8 mph - N/A   Clear
11:53 PM 54.0 °F - 35.1 °F 49% 29.89 in 10.0 mi East 5.8 mph - N/A   Clear